Temp
36 35 35 34 35 36 37 36 37 36 36 36 35 35 36 37 38 38 38 38 39 38 38 38 38 38 38 38 38 38 38 38 37 38 37 36 36 36 38 39 40 42
35 34 34 34 34 35 36 36 36 36 36 36 35 35 36 37 37 37 37 37 38 38 38 38 38 37 36 36 36 35 36 36 37 39 37 36 36 35 35 36 36 37
33 33 33 32 33 33 34 36 36 36 36 36 36 36 36 37 36 36 36 37 37 37 37 37 37 37 36 35 35 35 35 35 36 37 35 35 36 35 35 35 35 35
31 31 32 32 32 32 32 34 35 36 36 35 35 36 36 36 36 36 36 36 35 35 35 35 36 36 36 36 36 35 35 35 35 34 34 35 36 35 35 35 35 35
32 32 30 30 30 32 33 34 33 34 34 34 35 35 35 35 35 35 35 35 34 35 35 35 35 35 35 35 34 34 35 35 35 35 35 35 36 36 36 35 35 35
31 30 30 32 33 31 32 31 31 30 30 32 33 33 33 33 33 33 33 33 33 32 33 33 34 34 34 34 34 33 33 33 34 34 34 34 35 35 36 36 35 34
29 29 30 31 33 33 33 33 33 32 32 31 31 33 33 33 32 32 32 32 32 33 32 32 31 32 32 31 32 32 33 33 33 33 33 33 33 34 34 34 35 34
28 27 28 27 28 28 28 29 29 31 31 32 32 32 31 31 32 32 32 32 32 32 33 32 32 31 31 30 30 30 31 33 33 31 31 32 32 32 33 34 33 33
26 26 27 27 27 27 27 27 27 28 28 29 30 30 30 30 31 31 31 31 31 32 32 32 32 31 31 30 30 30 30 30 31 30 30 30 30 31 32 32 32 32
26 26 26 26 27 28 27 27 27 27 27 28 29 28 30 31 30 30 30 31 31 32 32 31 31 31 30 30 30 30 31 31 30 30 30 29 29 30 30 31 31 31
26 25 26 26 26 27 27 27 27 28 28 27 28 29 29 30 30 30 30 30 30 30 31 31 32 32 31 31 31 30 30 30 31 30 30 30 29 29 31 30 30 30
25 24 25 25 26 26 26 27 27 27 27 27 27 28 28 28 29 29 29 29 29 29 29 29 30 31 31 31 32 32 31 30 30 29 29 30 30 30 29 29 30 30
25 26 26 26 26 27 27 26 26 26 26 27 26 26 26 27 27 27 28 28 29 29 29 29 29 29 29 30 30 31 30 30 31 30 30 30 30 30 30 30 30 30
26 26 26 27 27 28 29 29 29 29 28 27 26 26 27 27 27 27 28 27 27 27 28 28 27 28 28 28 29 29 29 30 30 30 30 31 31 31 30 30 30 30
27 28 29 28 29 29 29 29 29 29 29 28 28 28 29 28 28 28 27 27 28 28 28 29 29 29 29 29 29 29 30 29 29 30 30 30 30 31 31 31 30 30
27 27 27 27 27 27 27 27 26 26 26 26 26 27 27 27 27 27 27 27 27 27 28 28 28 29 31 33 33 31 30 30 30 30 30 30 30 30 31 31 32 31
26 26 25 25 25 25 24 24 24 24 23 24 24 24 24 25 25 24 25 26 25 26 26 27 27 28 31 33 33 34 32 30 29 29 29 29 29 29 29 30 31 32
24 23 23 23 22 21 21 21 21 20 20 20 21 21 21 22 22 22 23 23 24 24 24 25 25 28 31 31 32 32 32 30 28 28 28 28 29 29 29 29 30 30
22 20 19 19 18 18 18 18 17 17 17 17 17 18 19 18 20 20 20 21 21 21 21 22 23 27 28 29 30 31 31 30 27 27 26 26 27 27 28 28 29 29
19 17 16 16 16 15 15 14 14 14 15 15 16 16 16 16 16 16 17 17 18 18 18 19 20 23 26 28 28 29 30 29 26 25 25 25 25 26 27 27 27 27
15 14 13 12 12 12 11 11 11 11 12 13 13 12 12 12 12 12 13 13 14 14 15 15 17 22 24 25 26 27 28 28 24 24 23 23 24 25 25 26 26 27
12 10 9 9 9 8 8 8 8 9 8 9 9 9 10 10 10 10 10 10 11 11 11 11 13 19 21 22 24 25 26 23 22 22 22 22 22 23 24 25 25 25
10 8 6 6 6 5 5 5 6 6 6 7 6 6 7 7 7 7 8 7 7 8 8 8 9 14 18 20 21 22 21 18 19 19 20 20 21 21 22 22 23 24
7 5 4 4 3 3 3 4 5 5 4 5 4 4 4 5 5 5 5 6 6 5 6 6 7 12 17 18 19 20 20 17 17 17 17 18 19 21 21 22 23 24
5 4 4 2 2 2 2 2 2 3 4 4 4 4 3 4 4 3 3 4 5 5 8 8 6 10 15 16 18 19 18 16 16 16 15 16 16 17 20 21 22 23
3 2 2 1 1 1 1 2 3 2 2 3 2 2 2 2 2 2 2 2 4 5 5 6 6 7 10 16 17 19 20 16 15 14 13 14 15 15 15 17 19 19
MSLP
1025.19 1025.23 1025.31 1025.35 1025.43 1025.43 1025.31 1025.07 1024.83 1024.63 1024.55 1024.51 1024.55 1024.51 1024.35 1024.11 1023.83 1023.67 1023.51 1023.31 1023.11 1022.87 1022.67 1022.47 1022.19 1021.91 1021.63 1021.35 1021.19 1021.07 1020.91 1020.79 1020.67 1020.51 1020.47 1020.47 1020.31 1020.11 1019.83 1019.55 1019.35 1019.19
1025.59 1025.59 1025.51 1025.47 1025.43 1025.47 1025.39 1025.27 1025.19 1025.11 1024.95 1024.83 1024.79 1024.75 1024.59 1024.39 1024.15 1023.99 1023.75 1023.55 1023.35 1023.23 1023.07 1022.83 1022.59 1022.39 1022.15 1021.91 1021.63 1021.39 1021.07 1020.87 1020.67 1020.55 1020.55 1020.47 1020.39 1020.35 1020.11 1019.79 1019.55 1019.43
1025.87 1025.87 1025.83 1025.75 1025.71 1025.55 1025.43 1025.31 1025.27 1025.27 1025.19 1025.11 1024.91 1024.75 1024.71 1024.55 1024.39 1024.23 1024.03 1023.83 1023.63 1023.43 1023.23 1023.11 1022.83 1022.59 1022.39 1022.19 1021.95 1021.71 1021.43 1021.15 1020.83 1020.63 1020.59 1020.47 1020.43 1020.35 1020.15 1019.95 1019.71 1019.47
1026.11 1026.15 1026.03 1025.91 1025.79 1025.59 1025.47 1025.39 1025.35 1025.35 1025.31 1025.15 1025.11 1025.03 1024.91 1024.75 1024.59 1024.35 1024.11 1023.95 1023.83 1023.63 1023.51 1023.31 1023.19 1022.87 1022.59 1022.31 1022.07 1021.83 1021.59 1021.35 1021.11 1020.95 1020.79 1020.55 1020.35 1020.27 1020.03 1019.87 1019.75 1019.55
1026.03 1025.99 1025.95 1025.91 1025.83 1025.75 1025.59 1025.47 1025.43 1025.47 1025.43 1025.39 1025.27 1025.15 1025.03 1024.87 1024.75 1024.55 1024.43 1024.23 1024.11 1023.87 1023.67 1023.47 1023.27 1023.11 1022.83 1022.55 1022.39 1022.15 1021.83 1021.63 1021.27 1021.07 1020.91 1020.63 1020.31 1020.15 1019.87 1019.75 1019.51 1019.39
1025.75 1025.79 1025.75 1025.71 1025.67 1025.51 1025.35 1025.31 1025.47 1025.51 1025.55 1025.47 1025.43 1025.39 1025.27 1025.15 1025.03 1024.87 1024.67 1024.51 1024.35 1024.23 1024.03 1023.83 1023.55 1023.31 1023.15 1022.87 1022.63 1022.39 1022.15 1021.87 1021.51 1021.27 1020.91 1020.51 1020.19 1019.99 1019.91 1019.71 1019.51 1019.31
1025.79 1025.75 1025.63 1025.71 1025.55 1025.59 1025.51 1025.51 1025.51 1025.55 1025.47 1025.59 1025.43 1025.31 1025.31 1025.19 1025.15 1025.07 1024.91 1024.75 1024.59 1024.35 1024.11 1023.87 1023.63 1023.27 1022.99 1022.83 1022.55 1022.31 1022.07 1021.83 1021.47 1021.23 1020.95 1020.59 1020.23 1019.87 1019.67 1019.59 1019.43 1019.27
1025.91 1025.99 1025.99 1025.87 1025.83 1025.79 1025.79 1025.79 1025.79 1025.75 1025.71 1025.63 1025.55 1025.47 1025.43 1025.27 1025.07 1024.95 1024.79 1024.63 1024.43 1024.19 1023.99 1023.79 1023.55 1023.23 1022.91 1022.71 1022.47 1022.23 1021.95 1021.63 1021.31 1021.07 1020.79 1020.55 1020.27 1019.95 1019.59 1019.43 1019.39 1019.27
1026.31 1026.15 1026.15 1026.07 1026.03 1025.99 1025.95 1025.83 1025.79 1025.71 1025.71 1025.63 1025.55 1025.47 1025.47 1025.39 1025.27 1025.15 1025.03 1024.87 1024.67 1024.35 1024.03 1023.75 1023.43 1023.15 1022.87 1022.67 1022.43 1022.19 1021.87 1021.51 1021.19 1020.91 1020.67 1020.39 1020.11 1019.83 1019.55 1019.35 1019.27 1019.19
1026.03 1026.19 1026.07 1026.03 1025.99 1025.91 1025.87 1025.75 1025.75 1025.71 1025.71 1025.71 1025.59 1025.59 1025.47 1025.31 1025.35 1025.19 1025.07 1024.83 1024.55 1024.23 1023.95 1023.67 1023.39 1023.15 1022.91 1022.75 1022.51 1022.15 1021.79 1021.39 1021.03 1020.75 1020.47 1020.23 1019.99 1019.71 1019.43 1019.27 1019.11 1018.99
1025.91 1025.99 1025.95 1025.91 1025.91 1025.87 1025.83 1025.75 1025.71 1025.67 1025.67 1025.63 1025.55 1025.47 1025.43 1025.31 1025.15 1025.03 1024.87 1024.67 1024.47 1024.15 1023.83 1023.51 1023.23 1022.95 1022.63 1022.31 1022.07 1021.87 1021.63 1021.27 1020.91 1020.63 1020.35 1020.11 1019.83 1019.55 1019.27 1019.07 1018.91 1018.75
1025.99 1026.03 1026.07 1026.07 1026.03 1026.03 1025.95 1025.87 1025.87 1025.83 1025.75 1025.71 1025.63 1025.51 1025.39 1025.35 1025.15 1024.95 1024.83 1024.55 1024.35 1024.19 1023.95 1023.71 1023.39 1023.07 1022.71 1022.39 1022.03 1021.67 1021.39 1021.15 1020.95 1020.67 1020.35 1019.99 1019.63 1019.35 1019.11 1018.87 1018.67 1018.39
1026.23 1026.27 1026.27 1026.31 1026.31 1026.19 1026.07 1025.95 1025.83 1025.79 1025.71 1025.63 1025.55 1025.55 1025.39 1025.23 1025.07 1024.91 1024.67 1024.51 1024.27 1024.07 1023.87 1023.55 1023.23 1022.95 1022.63 1022.27 1021.91 1021.63 1021.31 1020.95 1020.55 1020.19 1019.95 1019.71 1019.39 1019.15 1018.87 1018.63 1018.43 1018.27
1026.63 1026.51 1026.35 1026.23 1026.07 1025.83 1025.67 1025.55 1025.47 1025.39 1025.31 1025.27 1025.23 1025.15 1024.99 1024.83 1024.67 1024.51 1024.27 1024.19 1023.95 1023.71 1023.43 1023.19 1022.95 1022.59 1022.31 1022.03 1021.75 1021.51 1021.19 1020.79 1020.43 1020.03 1019.67 1019.31 1018.99 1018.75 1018.59 1018.35 1018.07 1017.83
1026.27 1026.11 1025.95 1025.91 1025.79 1025.67 1025.59 1025.51 1025.47 1025.39 1025.23 1025.11 1024.99 1024.87 1024.67 1024.47 1024.27 1024.07 1023.79 1023.47 1023.27 1023.15 1022.87 1022.63 1022.39 1022.03 1021.71 1021.51 1021.35 1021.03 1020.83 1020.51 1020.15 1019.83 1019.51 1019.07 1018.67 1018.27 1017.99 1017.79 1017.63 1017.47
1026.51 1026.39 1026.27 1026.23 1026.07 1026.03 1025.99 1025.91 1025.79 1025.63 1025.43 1025.23 1024.99 1024.79 1024.63 1024.39 1024.11 1023.87 1023.75 1023.47 1023.07 1022.63 1022.35 1022.11 1021.79 1021.43 1021.15 1021.03 1020.91 1020.67 1020.31 1019.99 1019.75 1019.47 1019.19 1018.87 1018.47 1017.99 1017.51 1017.27 1017.03 1016.91
1026.87 1026.79 1026.75 1026.67 1026.63 1026.59 1026.51 1026.39 1026.19 1025.99 1025.79 1025.47 1025.15 1024.91 1024.67 1024.39 1024.15 1023.87 1023.55 1023.27 1023.03 1022.67 1022.19 1021.79 1021.43 1021.03 1020.79 1020.75 1020.59 1020.39 1020.19 1019.91 1019.59 1019.19 1018.91 1018.55 1018.27 1017.87 1017.39 1016.91 1016.55 1016.43
1027.23 1027.19 1027.15 1027.11 1027.11 1027.07 1027.03 1026.87 1026.67 1026.43 1026.23 1025.95 1025.67 1025.31 1024.91 1024.63 1024.39 1024.03 1023.67 1023.39 1023.07 1022.75 1022.39 1021.91 1021.39 1020.91 1020.59 1020.47 1020.31 1020.15 1019.99 1019.75 1019.43 1019.03 1018.67 1018.27 1017.91 1017.59 1017.19 1016.79 1016.35 1016.07
1027.59 1027.59 1027.59 1027.55 1027.55 1027.55 1027.39 1027.23 1027.07 1026.87 1026.63 1026.39 1026.03 1025.67 1025.39 1025.03 1024.63 1024.35 1023.95 1023.59 1023.43 1023.11 1022.59 1022.03 1021.55 1021.03 1020.79 1020.55 1020.23 1019.99 1019.75 1019.55 1019.23 1018.87 1018.43 1017.99 1017.63 1017.31 1016.95 1016.55 1016.15 1015.79
1028.03 1028.07 1028.03 1027.99 1027.95 1027.87 1027.75 1027.59 1027.43 1027.23 1026.99 1026.75 1026.31 1025.91 1025.71 1025.35 1024.99 1024.71 1024.31 1024.07 1023.87 1023.59 1023.03 1022.27 1021.71 1021.31 1021.11 1020.75 1020.39 1020.03 1019.67 1019.39 1019.03 1018.63 1018.15 1017.71 1017.35 1016.99 1016.63 1016.31 1015.95 1015.63
1028.47 1028.51 1028.55 1028.47 1028.43 1028.31 1028.19 1028.03 1027.79 1027.51 1027.19 1026.95 1026.71 1026.39 1026.15 1025.79 1025.39 1024.99 1024.55 1024.43 1024.23 1023.91 1023.43 1022.59 1021.87 1021.63 1021.39 1020.99 1020.55 1020.15 1019.63 1019.19 1018.79 1018.35 1017.83 1017.31 1016.87 1016.55 1016.31 1015.99 1015.71 1015.39
1029.03 1029.03 1029.07 1029.03 1028.87 1028.75 1028.67 1028.39 1028.07 1027.87 1027.63 1027.27 1026.99 1026.67 1026.39 1026.11 1025.67 1025.43 1025.11 1024.71 1024.43 1024.23 1023.79 1022.95 1022.31 1022.23 1021.87 1021.27 1020.71 1020.23 1019.71 1019.19 1018.71 1018.19 1017.63 1017.03 1016.47 1016.11 1015.87 1015.63 1015.35 1015.07
1029.47 1029.51 1029.51 1029.39 1029.23 1029.07 1028.87 1028.63 1028.31 1027.99 1027.83 1027.67 1027.27 1026.79 1026.55 1026.23 1025.95 1025.63 1025.47 1025.27 1024.83 1024.55 1024.19 1023.39 1022.75 1022.59 1022.19 1021.51 1020.95 1020.43 1019.91 1019.43 1018.87 1018.19 1017.55 1016.91 1016.31 1015.99 1015.71 1015.47 1015.19 1014.95
1029.79 1029.75 1029.71 1029.55 1029.43 1029.27 1028.95 1028.67 1028.47 1028.23 1028.03 1027.71 1027.47 1026.91 1026.51 1026.31 1026.07 1025.67 1025.51 1025.47 1025.03 1024.51 1024.27 1023.59 1022.67 1022.55 1022.23 1021.59 1021.07 1020.47 1019.95 1019.35 1018.71 1018.11 1017.43 1016.79 1016.11 1015.63 1015.27 1014.99 1014.75 1014.71
1029.83 1029.79 1029.71 1029.55 1029.43 1029.19 1029.03 1028.75 1028.51 1028.19 1027.83 1027.59 1027.35 1027.07 1026.59 1026.35 1026.07 1025.71 1025.31 1025.11 1024.87 1024.35 1023.91 1023.47 1022.75 1022.39 1022.15 1021.55 1020.87 1020.23 1019.71 1019.11 1018.47 1017.87 1017.15 1016.55 1016.11 1015.31 1014.87 1014.67 1014.35 1014.27
1029.75 1029.71 1029.59 1029.51 1029.27 1029.03 1028.87 1028.67 1028.31 1028.03 1027.71 1027.43 1027.15 1026.99 1026.55 1026.19 1025.99 1025.59 1025.15 1024.79 1024.51 1024.07 1023.63 1023.27 1022.71 1022.19 1021.99 1021.23 1020.59 1019.83 1019.35 1018.83 1018.27 1017.79 1017.07 1016.43 1016.07 1015.67 1014.95 1014.47 1014.39 1013.95
Wind_Speed
8 7 7 7 7 7 8 9 9 9 8 8 8 8 8 8 9 9 8 9 9 9 10 9 9 9 9 8 7 7 6 6 6 5 5 5 6 6 8 7 7 7
8 7 6 6 6 6 7 7 7 8 8 7 7 6 7 8 9 9 9 10 9 9 9 9 9 8 8 8 8 8 7 6 7 5 5 6 6 5 7 7 7 6
7 6 6 6 6 6 6 6 6 7 7 7 7 7 7 6 8 8 8 9 9 10 10 10 10 9 8 7 7 7 7 7 7 7 5 6 6 6 6 6 6 6
4 4 4 4 4 4 4 5 6 6 6 7 7 6 6 6 8 9 9 9 8 8 8 8 9 9 9 9 8 8 7 7 6 6 6 6 6 5 6 6 6 6
3 3 3 3 3 3 3 4 4 4 5 4 4 5 6 6 7 7 7 8 8 9 9 9 8 8 8 8 8 8 8 8 8 6 6 7 7 6 6 5 5 6
4 4 4 4 4 5 6 6 4 4 4 4 5 4 4 4 5 5 5 6 6 6 7 7 7 7 6 6 7 6 7 7 7 6 7 7 7 6 6 6 6 7
4 4 5 4 5 5 5 5 6 6 6 5 5 7 6 6 5 5 5 5 5 5 5 5 5 7 6 5 6 7 7 6 6 6 6 7 7 8 6 5 7 7
4 4 4 4 4 4 4 3 3 3 3 4 5 6 5 7 8 8 8 9 8 8 7 6 6 5 6 5 6 6 7 6 7 7 7 7 5 7 8 6 5 7
2 3 3 3 3 4 3 4 3 3 3 3 4 4 4 4 5 6 7 7 7 8 8 9 8 8 7 6 7 6 7 7 7 6 7 7 7 7 7 6 7 6
2 2 2 3 3 4 4 4 3 4 3 3 4 4 5 5 4 5 5 7 8 8 8 8 9 8 7 6 7 8 8 9 8 7 7 7 7 7 7 6 7 7
4 3 3 4 3 4 4 5 4 4 4 4 5 5 5 6 7 5 6 6 7 8 9 10 10 10 11 11 9 7 8 9 9 8 7 8 7 7 7 7 7 7
4 3 4 4 4 4 4 4 5 4 4 4 4 6 6 5 7 7 6 8 8 8 8 9 10 10 10 11 11 11 10 9 8 8 8 8 8 8 8 7 7 8
4 4 4 4 4 5 4 4 4 4 4 4 4 4 5 6 5 7 6 7 8 8 8 9 9 9 10 10 10 10 10 11 11 11 10 8 8 8 8 8 8 8
3 3 2 3 3 4 5 5 6 6 5 4 4 5 6 6 7 8 8 6 7 7 8 7 8 9 9 8 8 9 10 11 11 11 12 11 11 10 8 8 9 9
6 5 6 7 8 8 9 10 9 9 9 9 9 9 9 9 9 10 10 11 9 9 9 8 9 10 8 7 8 10 10 10 11 11 12 12 12 12 11 10 9 9
7 7 8 8 9 9 9 9 10 10 10 11 11 10 10 10 10 10 10 11 13 13 12 11 10 9 10 17 17 12 11 10 10 10 11 11 12 13 13 12 12 11
6 7 7 8 7 8 8 9 11 10 10 11 12 12 13 13 12 13 13 12 12 13 14 14 12 11 21 23 23 25 16 11 11 11 11 12 12 12 13 14 13 12
6 6 7 7 7 7 8 8 9 10 10 11 12 13 13 12 14 14 14 14 13 13 14 14 14 19 27 26 26 25 22 15 11 11 11 12 12 13 13 13 13 13
6 7 7 7 7 7 8 9 10 10 10 11 12 12 11 13 14 14 15 14 14 15 15 16 15 22 27 28 27 27 27 22 12 12 12 12 13 13 13 14 13 13
7 6 7 7 8 9 9 9 10 10 10 9 10 11 11 12 12 13 14 14 14 15 15 16 17 20 27 28 28 28 28 24 14 13 13 13 13 13 12 13 13 12
8 7 8 8 9 9 10 10 9 10 10 9 9 11 12 12 12 12 12 12 12 13 13 17 16 26 28 29 28 28 28 25 13 12 11 12 12 13 13 13 13 13
7 7 7 8 9 9 9 10 9 9 11 11 10 9 8 9 10 10 11 13 11 12 13 17 17 26 27 28 28 27 30 16 12 12 12 14 13 13 11 10 11 12
7 6 7 7 7 9 9 9 10 11 9 8 10 10 10 10 11 10 11 11 15 14 13 16 16 20 25 27 27 28 23 14 15 12 14 14 14 14 12 14 14 12
4 5 6 7 7 8 9 9 8 8 8 8 9 11 11 10 10 12 10 10 12 13 12 14 14 18 26 26 26 26 22 15 12 12 13 14 13 15 12 12 15 28
4 4 5 7 8 8 8 10 9 9 9 8 8 8 10 9 10 11 11 9 9 12 19 19 15 16 23 25 26 25 20 13 13 10 13 14 15 15 11 10 13 15
4 5 6 6 9 9 8 8 8 9 9 9 9 8 10 9 8 10 11 11 10 11 12 12 14 13 17 26 24 25 25 16 12 12 13 15 14 15 13 10 12 14
Wind_Direction
37 36 38 36 33 27 21 19 16 23 22 17 17 2 2 349 356 1 359 357 355 354 353 350 349 350 347 344 342 338 331 317 310 301 298 289 280 272 272 270 266 256
31 34 35 38 36 27 25 25 20 23 17 20 13 2 358 358 355 359 359 357 358 358 352 352 349 347 345 343 340 339 329 330 320 313 315 305 286 285 277 271 267 273
34 34 37 38 34 29 26 24 30 21 19 8 10 13 2 1 355 357 359 358 356 353 354 351 349 349 345 342 341 337 333 328 321 317 321 303 297 288 275 275 277 268
37 45 47 41 38 33 25 32 25 23 13 14 8 359 6 357 358 357 356 359 355 351 350 349 348 344 346 344 345 341 335 328 315 316 311 305 293 282 281 277 276 281
45 35 41 47 39 37 38 45 31 19 12 356 351 354 356 354 355 354 354 350 354 347 347 347 343 345 343 342 343 339 337 330 325 328 320 308 301 303 292 288 283 284
14 24 24 26 21 21 23 23 16 11 0 357 345 328 331 332 336 335 334 334 335 334 333 336 337 333 336 331 332 331 326 328 320 326 323 317 311 308 304 303 297 290
351 1 7 6 10 17 16 7 2 1 358 348 341 351 347 340 336 327 316 312 310 311 314 316 321 322 328 330 330 327 323 315 316 322 322 316 316 313 310 304 300 295
335 339 354 356 1 353 349 345 334 340 329 343 347 325 345 336 333 335 334 331 329 320 314 306 302 305 311 322 319 320 317 319 320 322 319 313 312 308 311 310 301 298
317 315 336 337 338 317 312 306 294 299 299 305 306 306 311 311 312 317 319 318 315 313 315 316 312 309 307 308 305 303 301 301 303 308 309 309 312 303 302 303 306 299
319 307 332 320 328 303 298 284 282 283 285 282 278 287 297 293 295 294 296 303 304 306 308 307 307 302 299 291 289 294 295 294 295 295 292 290 289 291 293 297 293 297
305 310 306 296 289 295 289 291 291 296 303 298 301 298 293 298 297 294 292 291 293 296 300 303 303 305 306 305 300 289 283 285 286 286 283 281 277 277 281 280 281 275
274 278 259 253 259 264 263 264 267 275 282 287 284 290 296 291 288 293 287 289 286 282 283 286 288 290 290 289 293 299 299 291 280 271 271 272 274 272 270 269 271 273
255 247 243 245 250 252 256 259 261 264 265 276 268 260 272 279 276 277 278 270 275 275 273 275 277 277 280 284 288 290 290 291 295 294 289 283 271 266 264 264 263 265
239 244 253 283 302 319 326 328 326 324 321 306 298 298 298 295 296 291 286 273 269 270 268 266 268 272 272 272 274 279 287 289 290 292 292 292 291 285 275 263 258 257
343 348 351 354 349 347 347 343 340 336 333 333 328 323 317 313 309 307 307 305 297 287 286 283 280 279 279 279 284 285 280 280 283 285 288 291 290 288 284 279 271 261
348 351 355 353 353 349 345 342 338 336 332 329 325 321 319 316 315 313 309 307 308 308 305 301 295 292 287 293 297 295 294 293 291 289 287 285 285 287 285 280 276 274
356 353 354 356 352 348 344 341 336 334 331 328 326 325 323 322 320 316 313 311 311 309 308 306 303 300 301 305 307 307 305 301 297 293 289 286 282 279 281 284 283 277
353 353 357 353 352 344 338 334 331 331 330 327 323 322 320 319 315 313 312 313 311 310 307 305 303 304 307 311 312 312 311 307 301 295 291 286 285 282 281 280 281 281
360 359 348 346 344 342 335 336 333 326 324 324 318 316 316 313 313 315 311 312 313 311 309 306 303 305 309 312 312 313 312 311 304 298 293 289 286 284 283 282 281 280
358 352 347 344 343 339 336 330 327 320 318 315 311 313 312 309 308 308 308 310 312 312 308 305 301 305 309 311 311 311 310 309 303 298 291 286 285 283 281 281 280 282
359 354 347 341 337 334 330 324 320 317 316 318 316 312 314 311 312 312 310 312 312 310 307 303 302 308 311 311 310 310 308 307 299 294 288 283 280 278 278 277 278 278
357 343 338 333 328 325 322 317 316 315 317 318 311 306 301 303 301 303 306 312 314 313 309 303 305 311 313 312 311 310 308 306 303 297 292 286 282 280 276 275 276 276
346 335 326 323 321 316 313 312 314 314 311 311 304 304 305 306 304 306 313 313 311 310 307 303 303 312 313 312 313 312 310 304 299 292 290 289 287 289 287 284 280 277
330 322 314 313 311 308 307 305 305 300 298 305 301 304 303 303 305 304 302 303 302 301 302 299 300 308 310 310 310 309 306 302 297 292 286 285 282 280 275 275 278 282
311 308 305 304 302 300 301 301 302 299 299 298 292 291 291 297 298 297 297 294 288 291 300 301 298 304 308 308 306 305 304 297 294 289 289 291 292 290 285 282 285 287
303 301 296 295 296 294 292 289 292 294 294 296 293 289 291 293 289 290 292 295 293 292 293 295 297 298 303 304 304 303 303 301 292 289 289 290 289 291 292 282 280 281